TimeEDT,TemperatureF,Dew PointF,Humidity,Sea Level PressureIn,VisibilityMPH,Wind Direction,Wind SpeedMPH,Gust SpeedMPH,PrecipitationIn,Events,Conditions,WindDirDegrees,DateUTC
12:58 AM,82.0,73.6,75,30.04,10.0,SSE,10.4,-,N/A,,Clear,150,2013-08-24 04:58:00
1:58 AM,81.9,73.8,76,30.04,10.0,South,9.2,-,N/A,,Clear,170,2013-08-24 05:58:00
2:58 AM,81.7,73.6,76,30.04,10.0,South,6.9,-,N/A,,Clear,180,2013-08-24 06:58:00
3:58 AM,81.3,73.6,77,30.03,10.0,South,4.6,-,N/A,,Clear,190,2013-08-24 07:58:00
4:58 AM,80.6,73.4,79,30.04,10.0,WNW,1.2,-,N/A,,Clear,300,2013-08-24 08:58:00
5:58 AM,80.4,73.9,81,30.04,10.0,SSW,2.3,-,N/A,,Clear,210,2013-08-24 09:58:00
6:58 AM,80.1,73.9,81,30.06,10.0,SW,2.3,-,N/A,,Clear,230,2013-08-24 10:58:00
7:58 AM,81.3,74.8,81,30.08,10.0,Calm,Calm,-,N/A,,Clear,0,2013-08-24 11:58:00
8:58 AM,83.8,74.8,74,30.09,10.0,WSW,4.6,-,N/A,,Clear,240,2013-08-24 12:58:00
9:58 AM,83.7,74.1,73,30.12,10.0,WNW,1.2,-,N/A,,Clear,300,2013-08-24 13:58:00
10:18 AM,84.2,73.4,70,30.10,10.0,Variable,3.5,-,N/A,,Mostly Cloudy,0,2013-08-24 14:18:00
10:19 AM,84.2,75.2,74,30.10,10.0,Variable,3.5,-,N/A,,Light Drizzle,0,2013-08-24 14:19:00
10:32 AM,86.0,75.2,70,30.11,10.0,ENE,4.6,-,N/A,,Mostly Cloudy,60,2013-08-24 14:32:00
10:47 AM,86.0,75.2,70,30.11,10.0,ENE,5.8,-,N/A,,Scattered Clouds,70,2013-08-24 14:47:00
10:58 AM,86.0,74.8,69,30.12,10.0,ENE,5.8,-,0.00,,Partly Cloudy,70,2013-08-24 14:58:00
11:58 AM,87.1,74.3,66,30.12,10.0,ENE,6.9,-,N/A,,Clear,70,2013-08-24 15:58:00
12:58 PM,87.4,75.0,66,30.11,10.0,East,8.1,-,N/A,,Clear,80,2013-08-24 16:58:00
1:58 PM,88.2,74.8,65,30.09,10.0,East,9.2,-,N/A,,Clear,90,2013-08-24 17:58:00
2:58 PM,88.3,73.9,62,30.09,10.0,East,12.7,-,N/A,,Clear,90,2013-08-24 18:58:00
3:03 PM,87.8,73.4,62,30.07,10.0,East,11.5,-,N/A,,Light Drizzle,80,2013-08-24 19:03:00
3:13 PM,87.8,73.4,62,30.07,10.0,East,13.8,-,N/A,,Clear,80,2013-08-24 19:13:00
3:58 PM,83.7,72.9,70,30.09,10.0,NE,25.3,-,0.00,Thunderstorm,Partly Cloudy,40,2013-08-24 19:58:00
4:58 PM,79.5,71.8,77,30.11,10.0,ENE,18.4,27.6,N/A,,Partly Cloudy,60,2013-08-24 20:58:00
5:58 PM,79.7,70.0,72,30.09,10.0,East,11.5,-,N/A,,Clear,80,2013-08-24 21:58:00
6:02 PM,80.6,69.8,70,30.08,10.0,ENE,11.5,-,N/A,,Light Drizzle,60,2013-08-24 22:02:00
6:43 PM,78.8,71.6,78,30.06,10.0,ENE,12.7,-,N/A,,Partly Cloudy,70,2013-08-24 22:43:00
6:58 PM,79.0,70.7,76,30.08,10.0,East,17.3,-,0.00,Thunderstorm,Clear,80,2013-08-24 22:58:00
7:58 PM,80.2,72.1,76,30.09,10.0,East,16.1,-,N/A,,Partly Cloudy,80,2013-08-24 23:58:00
8:58 PM,80.4,71.6,74,30.09,10.0,East,12.7,-,N/A,,Partly Cloudy,100,2013-08-25 00:58:00
9:58 PM,80.4,70.9,73,30.12,10.0,SE,10.4,-,N/A,,Clear,130,2013-08-25 01:58:00
10:58 PM,81.0,71.8,74,30.14,10.0,SE,9.2,-,N/A,,Clear,140,2013-08-25 02:58:00
11:58 PM,80.8,71.2,73,30.12,10.0,ESE,8.1,-,N/A,,Clear,110,2013-08-25 03:58:00